Flag for Germany Weather past 2 weeks in Rodgau, Hesse, Germany

38 °F

Passing clouds.

Feels Like: 35 °F
Forecast: 29 / 38 °F
Wind: 3 mph from West

Location: Frankfurt / M-Flughafen

Current Time: Nov 26, 2015 at 1:55:12 AM

Latest Report: Nov 26, 2015 at 12:00 AM

Visibility: 11 mi

Pressure: 29.80 "Hg

Humidity: 98%

Dew point: 37 °F

Location of RodgauLocation

Historic Weather in Rodgau — Graph


Rodgau temperature yesterday

Maximum temperature yesterday: 41 °F (at 4:00 PM)
Minimum temperature yesterday: 33 °F (at 2:00 AM)
Average temperature yesterday: 37 °F

Past Weeks' High & Low Weather Summary

High61 °F (Nov 18, 3:00 AM)100% (Nov 13, 8:00 AM)30.39 "Hg (Nov 13, 8:00 AM)
Low27 °F (Nov 24, 3:00 AM)55% (Nov 18, 1:00 PM)29.41 "Hg (Nov 21, 1:00 PM)
Average47 °F84%30.01 "Hg
* Reported Nov 11 1:00 AM — Midnight between Nov 25 and Nov 26, Rodgau, Weather by CustomWeather, © 2015

Note: Actual official high and low records may vary slightly from our data, if they occured in-between our weather recording intervals... More about our weather records


Rodgau weather history for previous 24 hours

Time TempWeatherWind HumidityBarometerVisibility
12:00 AM
Thu, Nov 26
38 °FPassing clouds.3 mph98%29.80 "Hg11 mi
11:00 PM
Wed, Nov 25
38 °FPassing clouds.2 mph97%29.79 "Hg11 mi
10:00 PM38 °FOvercast.2 mph99%29.78 "Hg11 mi
9:00 PM38 °FOvercast.2 mph99%29.77 "Hg9 mi
8:00 PM39 °FSprinkles. Low clouds.3 mph98%29.76 "Hg6 mi
7:00 PM39 °FLow clouds.5 mph98%29.75 "Hg6 mi
6:00 PM39 °FLow clouds.5 mph96%29.72 "Hg7 mi
5:00 PM40 °FSprinkles. Low clouds.5 mph97%29.72 "Hg7 mi
4:00 PM41 °FSprinkles. Low clouds.5 mph96%29.72 "Hg7 mi
3:00 PM41 °FOvercast.3 mph96%29.73 "Hg7 mi
2:00 PM40 °FLow clouds.3 mph97%29.74 "Hg9 mi
1:00 PM39 °FLow clouds.3 mph98%29.75 "Hg7 mi
12:00 PM37 °FLight rain. Low clouds.5 mph99%29.77 "Hg7 mi
11:00 AM36 °FLight rain. Low clouds.5 mph99%29.79 "Hg6 mi
9:00 AM34 °FLight rain. Low clouds.7 mph99%29.80 "Hg6 mi
7:00 AM33 °FLight rain. Low clouds.6 mph99%29.80 "Hg4 mi
3:00 AM33 °FLight snow. Low clouds.6 mph100%29.84 "Hg3 mi
2:00 AM33 °FSnow. Low clouds.6 mph100%29.85 "Hg2 mi
Weather by CustomWeather, © 2015

See weather overviewHow to use our weather pages